THY220 EDDF-LTFM

Flight info

Callsign THY220
Flight time N/A
Altitude 31000
Route CINDY8S/18 CINDY Z74 HAREM DCT ASLEP DCT TAKUT L603 BESNI/N0481F370 L605 MIQ DCT ALUTU DCT BIBAG DCT ESEGA DCT VELOM DCT GOTAR DCT NALOX DCT BABIT DCT ESIRI DCT ETIDA T390 RILEX
Aircraft B77W/H-SDE1E2E3FGHIJ2J3J4J5M1RWXY/LB1D1

Departure

Time 2026-04-15 16:16
Airport Frankfurt Main Airport (EDDF)

Arrival

Time N/A
Airport İstanbul Airport (LTFM)
Time Latitude Longitude Altitude Speed Heading
2026-04-15 15:37 50.04652 8.57044 365 ft 0 kts 90°
2026-04-15 16:02 50.04652 8.57033 367 ft 2 kts 96°
2026-04-15 16:03 50.04655 8.57008 365 ft 2 kts 111°
2026-04-15 16:03 50.04663 8.56986 365 ft 2 kts 133°
2026-04-15 16:03 50.04676 8.56971 365 ft 2 kts 161°
2026-04-15 16:03 50.04692 8.56966 369 ft 2 kts 185°
2026-04-15 16:04 50.04702 8.56968 365 ft 0 kts 200°
2026-04-15 16:06 50.04694 8.56963 365 ft 2 kts 202°
2026-04-15 16:07 50.04671 8.56948 372 ft 5 kts 203°
2026-04-15 16:07 50.04626 8.56918 369 ft 8 kts 198°
2026-04-15 16:07 50.04576 8.56902 368 ft 1 kts 192°
2026-04-15 16:08 50.04553 8.56894 369 ft 7 kts 193°
2026-04-15 16:08 50.04486 8.56867 366 ft 12 kts 201°
2026-04-15 16:08 50.04433 8.56751 372 ft 15 kts 249°
2026-04-15 16:08 50.04390 8.56575 368 ft 19 kts 249°
2026-04-15 16:09 50.04340 8.56361 369 ft 23 kts 249°
2026-04-15 16:09 50.04281 8.56115 365 ft 25 kts 250°
2026-04-15 16:09 50.04217 8.55849 369 ft 27 kts 250°
2026-04-15 16:09 50.04153 8.55580 369 ft 24 kts 250°
2026-04-15 16:10 50.04094 8.55332 370 ft 24 kts 250°
2026-04-15 16:10 50.04035 8.55085 370 ft 24 kts 250°
2026-04-15 16:10 50.03976 8.54837 369 ft 24 kts 250°
2026-04-15 16:10 50.03918 8.54595 367 ft 24 kts 249°
2026-04-15 16:11 50.03875 8.54417 371 ft 13 kts 249°
2026-04-15 16:11 50.03825 8.54292 369 ft 15 kts 236°
2026-04-15 16:11 50.03780 8.54142 371 ft 16 kts 250°
2026-04-15 16:11 50.03738 8.53964 369 ft 19 kts 249°
2026-04-15 16:12 50.03689 8.53759 371 ft 21 kts 249°
2026-04-15 16:12 50.03633 8.53535 368 ft 22 kts 248°
2026-04-15 16:12 50.03578 8.53308 365 ft 22 kts 250°
2026-04-15 16:12 50.03522 8.53072 372 ft 24 kts 250°
2026-04-15 16:13 50.03475 8.52881 367 ft 11 kts 245°
2026-04-15 16:13 50.03445 8.52775 370 ft 11 kts 248°
2026-04-15 16:13 50.03418 8.52666 368 ft 11 kts 249°
2026-04-15 16:13 50.03360 8.52600 370 ft 12 kts 187°
2026-04-15 16:14 50.03347 8.52599 367 ft 0 kts 181°
2026-04-15 16:15 50.03316 8.52597 370 ft 10 kts 181°
2026-04-15 16:15 50.03234 8.52596 366 ft 28 kts 180°
2026-04-15 16:15 50.02886 8.52597 370 ft 79 kts 179°
2026-04-15 16:15 50.01958 8.52607 372 ft 186 kts 180°
2026-04-15 16:16 50.00486 8.52615 1078 ft 218 kts 180°
2026-04-15 16:16 49.99023 8.52659 2492 ft 209 kts 178°
2026-04-15 16:16 49.97586 8.52736 3510 ft 207 kts 176°
2026-04-15 16:16 49.96112 8.52833 4285 ft 218 kts 176°
2026-04-15 16:17 49.94551 8.52942 5004 ft 229 kts 176°
2026-04-15 16:17 49.92951 8.53053 5676 ft 230 kts 176°
2026-04-15 16:17 49.91356 8.53170 6386 ft 230 kts 176°
2026-04-15 16:17 49.89747 8.53290 7060 ft 233 kts 177°
2026-04-15 16:18 49.88122 8.53408 7725 ft 235 kts 177°
2026-04-15 16:18 49.86485 8.53529 8401 ft 236 kts 178°
2026-04-15 16:18 49.84833 8.53652 9037 ft 241 kts 178°
2026-04-15 16:18 49.83149 8.53779 9669 ft 243 kts 178°